Location: Chenereilles
(45.4866°N, 4.0790°E)
Time: 01:58:10
(UTC+00:00)

USA 215 - Pass Details

Date: 12 November 2019
Orbit: 1101 x 1107 km, 123.0° (Epoch: 02 December)

Event Time Altitude Azimuth Distance (km) Brightness Sun altitude
Exits shadow 20:08:59 38° 263° (W) 1,623 4.4 -40.5°
Drops below altitude 10° 20:13:34 10° 299° (WNW) 2,963 6.1 -41.3°
Sets 20:16:12 0° 306° (NW) 3,923 6.9 -41.7°
